Date,TemperatureHighF,TemperatureAvgF,TemperatureLowF,DewpointHighF,DewpointAvgF,DewpointLowF,HumidityHigh,HumidityAvg,HumidityLow,PressureMaxIn,PressureMinIn,WindSpeedMaxMPH,WindSpeedAvgMPH,GustSpeedMaxMPH,PrecipitationSumIn
2013-7-1,76.7,74.5,71.6,74.0,71.9,69.7,96,92,89,30.04,29.88,4,0,10,1.09
2013-7-2,84.2,77.1,73.6,76.5,72.4,70.3,93,86,71,30.17,30.03,3,1,10,0.03
2013-7-3,85.4,77.4,71.9,75.9,72.2,68.8,91,84,69,30.24,30.15,3,0,9,0.00
2013-7-4,88.4,81.0,73.9,76.2,73.5,71.5,94,79,62,30.25,30.14,3,1,9,0.00
2013-7-5,91.3,82.0,73.0,75.9,72.5,70.2,94,74,53,30.21,30.08,3,1,16,0.00
2013-7-6,93.0,83.6,75.4,76.8,73.3,71.6,89,72,50,30.13,30.01,3,1,12,0.00
2013-7-7,92.8,83.4,73.6,77.7,73.2,68.9,89,72,55,30.06,29.92,5,1,18,0.00
2013-7-8,88.8,78.8,69.6,73.0,69.1,66.3,90,74,53,30.04,29.95,4,1,11,0.00
2013-7-9,87.5,78.5,69.3,74.0,69.9,66.1,91,76,60,30.07,29.98,4,1,10,0.00
2013-7-10,87.1,79.2,73.3,77.1,72.5,69.5,92,81,62,30.01,29.80,5,1,14,0.08
2013-7-11,85.5,78.5,73.4,74.0,71.9,65.2,87,81,56,29.92,29.79,2,0,8,0.00
2013-7-12,77.2,72.8,68.3,70.6,67.1,63.1,93,83,71,30.09,29.92,5,2,15,0.08
2013-7-13,78.3,72.7,67.5,75.4,70.5,65.6,95,93,87,30.27,30.08,4,1,10,0.14
2013-7-14,90.7,81.2,74.1,76.7,73.6,70.7,96,79,58,30.34,30.23,3,1,10,0.01
2013-7-15,95.8,84.4,74.4,76.1,72.8,70.5,89,70,48,30.25,30.12,3,1,8,0.00
2013-7-16,94.1,82.9,71.1,72.2,70.1,65.6,94,68,43,30.20,30.12,2,0,8,0.00
2013-7-17,95.0,83.4,72.2,74.6,71.7,67.8,95,70,43,30.19,30.04,2,0,7,0.00
2013-7-18,97.6,86.9,76.6,76.5,73.4,68.6,85,66,41,30.06,29.94,2,0,8,0.00
2013-7-19,96.5,87.2,77.8,79.3,76.1,73.1,90,71,51,29.96,29.78,4,1,15,0.00
2013-7-20,92.3,83.3,77.0,76.6,72.4,67.9,82,70,51,29.84,29.72,5,2,16,0.02
2013-7-21,87.3,78.7,72.4,72.4,67.9,62.2,95,72,48,29.94,29.82,3,1,10,0.02
2013-7-22,84.6,76.6,70.8,75.1,71.3,66.2,94,84,71,29.94,29.78,5,1,12,0.20
2013-7-23,86.3,78.0,72.0,75.2,72.4,69.6,95,84,65,29.78,29.55,4,1,11,0.57
2013-7-24,81.2,74.9,66.4,69.9,64.7,54.7,93,72,54,29.93,29.61,3,1,10,0.00
2013-7-25,67.5,65.3,63.2,60.6,55.8,50.0,87,71,62,30.05,29.93,3,1,9,0.00
2013-7-26,66.3,65.7,64.5,61.4,60.4,59.9,89,83,81,30.03,29.99,2,0,6,0.00
2013-7-27,83.8,72.9,62.1,67.8,63.2,60.6,95,74,48,30.04,29.94,3,1,12,0.00
2013-7-28,78.8,71.1,66.4,70.5,67.0,63.4,95,87,73,29.97,29.90,3,1,11,1.12
2013-7-29,83.0,73.8,66.0,68.6,64.0,53.9,96,74,38,30.10,29.95,2,1,11,0.01
2013-7-30,79.9,70.1,58.0,62.3,58.6,56.2,94,69,46,30.17,30.09,2,1,9,0.00
2013-7-31,82.3,73.6,58.5,64.1,61.2,56.8,95,67,47,30.16,30.02,2,0,9,0.00